View from above orbital plane
|
View from above satellite
|
Ground track
|
The orbit data is extracted from the following two-line orbital elements,
1 27601U 02056E 21100.63238678 -.00000025 00000-0 53658-5 0 9996
2 27601 98.1961 126.6107 0073370 111.8291 323.2651 14.31990744957227
Epoch (UTC): | 10 April 2021 15:10:38 |
Eccentricity: | 0.0073370 |
inclination: | 98.1961° |
perigee height: | 732 km |
apogee height: | 837 km |
right ascension of ascending node: | 126.6107° |
argument of perigee: | 111.8291° |
revolutions per day: | 14.31990744 |
mean anomaly at epoch: | 323.2651° |
orbit number at epoch: | 95722 |
The dashed part of the orbit path shows where the satellite is in the earth's shadow,
|
|